Location: ??????????
(48.4699°N, 37.9573°E)
Time: 03:02:26
(UTC+00:00)

ARGOS - Pass Details

Date: 20 January 2021
Orbit: 821 x 834 km, 98.4° (Epoch: 24 February)

Event Time Altitude Azimuth Distance (km) Brightness Sun altitude
Rises 15:48:33 0° 146° (SE) 3,343 6.1 -16.3°
Reaches altitude 10° 15:50:57 10° 141° (SE) 2,415 5.3 -16.7°
Maximum altitude 15:56:04 49° 68° (ENE) 1,059 3.3 -17.5°
Drops below altitude 10° 16:01:14 10° 355° (N) 2,437 5.5 -18.4°
Sets 16:03:40 0° 350° (N) 3,376 6.3 -18.8°
